EW8371 Weather Reports


Display with metric or nautical units.
time (UTC)temp
F
wind
direction
speed
MPH
gust
MPH
rain 1hr
in
rain 24hr
in
rain mn
in
humidity
%
barometer
mb
20260508181527 45 315 1.0 8.0 0.00 0.06 0.06 73 1009.9
20260508180019 45 190 0.0 5.0 0.00 0.06 0.06 73 1009.7
20260508174510 44 219 1.0 7.0 0.00 0.06 0.06 73 1009.6
20260508173015 43 198 4.0 9.0 0.00 0.06 0.06 72 1009.9
20260508171508 43 203 1.0 11.0 0.01 0.06 0.06 61 1009.9
20260508170001 42 108 2.0 8.0 0.02 0.06 0.06 48 1010.2
20260508164528 41 349 3.0 7.0 0.03 0.06 0.06 51 1010.3
20260508163026 40 237 1.0 3.0 0.06 0.06 0.06 50 1010.4
20260508161528 40 336 0.0 3.0 0.05 0.05 0.05 57 1010.6
20260508160027 39 338 3.0 8.0 0.04 0.04 0.04 65 1010.6
20260508154515 41 261 2.0 6.0 0.03 0.03 0.03 68 1010.4
20260508153013 40 360 2.0 6.0 0.00 0.00 0.00 83 1010.3
20260508151541 41 278 1.0 8.0 0.00 0.00 0.00 79 1010.2
20260508150040 41 321 3.0 8.0 0.00 0.00 0.00 75 1010.0
20260508144537 42 360 5.0 16.0 0.00 0.00 0.00 70 1009.8
20260508143042 44 360 2.0 11.0 0.00 0.00 0.00 63 1009.3
20260508141536 44 360 5.0 11.0 0.00 0.00 0.00 63 1009.2
20260508140037 44 360 2.0 11.0 0.00 0.00 0.00 68 1009.2
20260508134537 44 166 4.0 8.0 0.00 0.00 0.00 68 1008.8
20260508134534 44 168 4.0 8.0 0.00 0.00 0.00 68 1008.8
20260508133005 44 172 1.0 7.0 0.00 0.00 0.00 70 1008.9
20260508131505 44 177 1.0 7.0 0.00 0.00 0.00 71 1009.1
20260508130001 43 263 2.0 7.0 0.00 0.00 0.00 69 1009.2
20260508124604 43 140 2.0 5.0 0.00 0.00 0.00 80 1009.0
20260508123107 41 149 0.0 4.0 0.00 0.00 0.00 81 1009.2
20260508121559 40 140 1.0 4.0 0.00 0.00 0.00 83 1009.5
20260508120057 39 175 1.0 5.0 0.00 0.00 0.00 86 1009.7
20260508114555 39 182 2.0 4.0 0.00 0.00 0.00 87 1009.5
20260508113055 38 130 3.0 4.0 0.00 0.00 0.00 89 1009.4
20260508111601 37 186 1.0 3.0 0.00 0.00 0.00 90 1009.9
20260508110051 36 219 1.0 3.0 0.00 0.00 0.00 90 1009.8
20260508104550 36 200 2.0 4.0 0.00 0.00 0.00 91 1009.7
20260508103049 36 215 3.0 4.0 0.00 0.00 0.00 91 1009.2
20260508101548 36 183 1.0 3.0 0.00 0.00 0.00 91 1009.2
20260508100045 36 195 0.0 3.0 0.00 0.00 0.00 89 1009.2
20260508094551 36 190 2.0 3.0 0.00 0.00 0.00 89 1009.0
20260508093043 36 180 0.0 4.0 0.00 0.00 0.00 88 1009.1
20260508091543 36 205 3.0 5.0 0.00 0.00 0.00 87 1009.1
20260508090038 36 178 1.0 3.0 0.00 0.00 0.00 88 1009.0
20260508084540 35 101 0.0 0.0 0.00 0.00 0.00 90 1008.9
20260508083037 35 101 0.0 2.0 0.00 0.00 0.00 90 1008.9
20260508081536 34 171 0.0 2.0 0.00 0.00 0.00 90 1008.8
20260508080033 34 171 0.0 2.0 0.00 0.00 0.00 89 1008.6
20260508074535 33 162 0.0 0.0 0.00 0.00 0.00 90 1008.4
20260508073032 33 162 0.0 2.0 0.00 0.00 0.00 90 1008.3
20260508071532 33 161 2.0 3.0 0.00 0.00 0.00 90 1008.3
20260508070029 32 137 0.0 2.0 0.00 0.00 0.00 90 1008.2
20260508064527 32 137 0.0 2.0 0.00 0.00 0.00 90 1008.2
20260508063025 32 144 2.0 4.0 0.00 0.00 0.00 89 1008.0
20260508061527 33 86 0.0 0.0 0.00 0.00 0.00 89 1008.0
20260508060057 33 86 0.0 1.0 0.00 0.00 0.00 89 1008.1
20260508054557 33 86 0.0 0.0 0.00 0.00 0.00 89 1008.2
20260508053056 33 86 0.0 1.0 0.00 0.00 0.00 89 1008.4
20260508051549 33 86 0.0 2.0 0.00 0.00 0.00 88 1008.5
20260508050048 33 86 0.0 0.0 0.00 0.00 0.00 88 1008.4
20260508044602 33 86 0.0 0.0 0.00 0.00 0.00 87 1008.5
20260508043046 33 86 0.0 0.0 0.00 0.00 0.00 87 1008.4
20260508041542 33 86 0.0 0.0 0.00 0.00 0.00 86 1008.2
20260508040042 33 86 0.0 0.0 0.00 0.00 0.00 85 1008.1
20260508034549 33 86 0.0 0.0 0.00 0.00 0.00 85 1008.0
20260508033009 34 86 0.0 2.0 0.00 0.00 0.00 84 1008.0
20260508031506 35 163 0.0 3.0 0.00 0.00 0.00 81 1007.9
20260508030043 35 284 1.0 2.0 0.00 0.00 0.00 80 1007.8
20260508024538 36 322 0.0 0.0 0.00 0.00 0.00 80 1007.8
20260508023029 37 322 0.0 0.0 0.00 0.00 0.00 78 1008.0
20260508021522 37 322 0.0 0.0 0.00 0.00 0.00 75 1007.9
20260508020021 38 322 0.0 0.0 0.00 0.00 0.00 74 1007.9
20260508014517 39 322 0.0 2.0 0.00 0.00 0.00 69 1007.9
20260508013011 40 322 0.0 2.0 0.00 0.00 0.00 66 1008.0
20260508011511 42 322 0.0 2.0 0.00 0.00 0.00 61 1008.0
20260508010008 42 322 0.0 2.0 0.00 0.00 0.00 60 1007.6
20260508004502 43 322 0.0 2.0 0.00 0.00 0.00 56 1007.5
20260508003101 44 322 0.0 2.0 0.00 0.01 0.00 53 1007.4
20260508001555 46 333 0.0 2.0 0.00 0.01 0.00 49 1007.1
20260508000051 47 355 1.0 5.0 0.00 0.01 0.00 45 1007.0
20260507234559 48 13 2.0 5.0 0.00 0.01 0.00 43 1006.9
20260507233049 48 355 2.0 8.0 0.00 0.01 0.00 43 1006.8
20260507231531 49 351 0.0 6.0 0.00 0.01 0.00 41 1006.8
20260507230018 50 355 4.0 10.0 0.00 0.01 0.00 40 1006.6
20260507224520 50 355 3.0 11.0 0.00 0.01 0.00 41 1006.6
20260507223015 50 348 2.0 13.0 0.00 0.02 0.00 41 1006.6
20260507221516 51 306 5.0 12.0 0.00 0.02 0.00 42 1006.7
20260507220016 51 360 5.0 10.0 0.00 0.02 0.00 43 1006.7
20260507214512 51 317 3.0 8.0 0.00 0.02 0.00 42 1006.9
20260507213014 52 250 2.0 14.0 0.00 0.03 0.00 40 1006.7
20260507211512 51 248 7.0 14.0 0.00 0.03 0.00 39 1006.8
20260507210010 52 284 5.0 15.0 0.00 0.03 0.00 41 1006.5
20260507204507 52 349 6.0 13.0 0.00 0.03 0.00 39 1006.7
20260507203008 51 339 4.0 12.0 0.00 0.04 0.00 42 1006.7
20260507201506 52 5 9.0 14.0 0.00 0.04 0.00 40 1006.6
20260507200005 51 271 7.0 17.0 0.00 0.04 0.00 44 1006.8
20260507194600 50 273 4.0 12.0 0.00 0.04 0.00 40 1006.9
20260507193102 51 294 5.0 16.0 0.00 0.05 0.00 43 1007.0
20260507191558 51 160 4.0 10.0 0.00 0.05 0.00 44 1007.0
20260507190055 51 34 6.0 16.0 0.00 0.05 0.00 44 1007.4
20260507184524 51 360 8.0 17.0 0.00 0.05 0.00 45 1007.4
20260507183033 53 269 4.0 10.0 0.00 0.07 0.00 43 1007.6